Regional Weather Roundup
Issued by NWS

Home | Current Version | Previous Version | Graphics & Text | Print | Product List | Glossary On
Versions: 1 2 3 4 5 6 7 8 9 10 11 12 13 14 15 16 17 18 19 20 21 22 23 24 25 26 27 28 29 30 31 32 33 34 35 36 37 38 39 40 41 42 43 44 45 46 47 48 49 50
000
ASUS43 KBIS 220102
RWRND

NORTH DAKOTA REGIONAL WEATHER ROUNDUP
NATIONAL WEATHER SERVICE BISMARCK ND
800 PM CDT SAT OCT 21 2017

NOTE: "FAIR" INDICATES FEW OR NO CLOUDS BELOW 12,000 FEET WITH NO
SIGNIFICANT WEATHER AND/OR OBSTRUCTIONS TO VISIBILITY.


NDZ001>003-009>011-017-220200-
NORTHWEST NORTH DAKOTA

CITY           SKY/WX    TMP DP  RH WIND       PRES   REMARKS
WILLISTON      CLEAR     38  29  70 W7        29.77R
MINOT          LGT RAIN  47  39  74 W22G30    29.69R
MINOT AFB      CLOUDY    47  37  66 W24G32    29.67R
$$

NDZ018>021-031>035-040>046-220200-
SOUTHWEST NORTH DAKOTA

CITY           SKY/WX    TMP DP  RH WIND       PRES   REMARKS
BISMARCK       CLOUDY    51  36  56 W15       29.78R
DICKINSON      CLEAR     47  24  40 W16       29.79R
GARRISON         N/A     48  34  58 NW21G35   29.73R
HETTINGER ARPT CLEAR     36  22  56 W8        29.87R
$$

NDZ004>008-012>016-024-026-027-054-220200-
NORTHEAST NORTH DAKOTA

CITY           SKY/WX    TMP DP  RH WIND       PRES   REMARKS
GRAND FORKS    CLOUDY    54  43  66 W16G25    29.61R
GRND FRKS AFB  CLOUDY    52  42  68 W13       29.62R
DEVILS LAKE    CLOUDY    49  38  65 W22       29.63R
$$

NDZ022-023-025-028>030-036>039-047>053-220200-
SOUTHEAST NORTH DAKOTA

CITY           SKY/WX    TMP DP  RH WIND       PRES   REMARKS
FARGO          CLOUDY    53  44  71 SW15      29.69R
JAMESTOWN      CLOUDY    50  39  66 W16       29.70R
$$





USA.gov is the U.S. government's official web portal to all federal, state and local government web resources and services.